Location: Morisset
(33.1080°S, 151.4871°E)
Time: 08:20:38
(UTC+00:00)

Cosmos 2082 Rocket - Pass Details

Date: 29 October 2020
Orbit: 833 x 854 km, 71.0° (Epoch: 27 November)

Event Time Altitude Azimuth Distance (km) Brightness Sun altitude
Rises 16:48:13 0° 211° (SSW) 3,429 5.5 -24.7°
Reaches altitude 10° 16:50:51 10° 219° (SW) 2,483 4.6 -24.3°
Enters shadow 16:53:44 26° 240° (WSW) 1,604 3.4 -23.8°
